Location: Unspecified
(41.1637°N, 24.2901°E)
Time: 16:17:39
(UTC+01:00)

ISS - Pass Details

Date: 04 March 2026
Orbit: 417 x 426 km, 51.6° (Epoch: 16 March)

Event Time Altitude Azimuth Distance (km) Brightness Sun altitude
Exits shadow 03:40:46 31° 72° (ENE) 759 -1.9 -25.5°
Drops below altitude 10° 03:42:57 10° 101° (E) 1,492 -0.1 -25.1°
Sets 03:45:07 0° 109° (ESE) 2,351 0.9 -24.7°
